Location: ???????
(55.3754°N, 39.3545°E)
Time: 18:21:18
(UTC+00:00)

Cosmos 2333 Rocket - Pass Details

Date: 14 April 2026
Orbit: 842 x 861 km, 70.8° (Epoch: 16 May)

Event Time Altitude Azimuth Distance (km) Brightness Sun altitude
Rises 17:24:55 0° 239° (WSW) 3,397 5.8 -8.5°
Reaches altitude 10° 17:27:30 10° 246° (WSW) 2,464 5.1 -8.8°
Maximum altitude 17:32:51 43° 318° (NW) 1,180 3.6 -9.4°
Drops below altitude 10° 17:38:15 10° 29° (NNE) 2,473 4.7 -10.1°
Sets 17:40:51 0° 36° (NE) 3,412 5.3 -10.4°
